Location: Piolenc
(44.1794°N, 4.7641°E)
Time: 04:20:54
(UTC+00:00)

ATLAS 3B R/B - Pass Details

Date: 27 January 2021
Orbit: 1006 x 1189 km, 63.8° (Epoch: 26 February)

Event Time Altitude Azimuth Distance (km) Brightness Sun altitude
Rises 05:49:39 0° 185° (S) 3,719 5.6 -13.4°
Reaches altitude 10° 05:52:26 10° 177° (S) 2,771 5.1 -12.9°
Maximum altitude 05:58:12 35° 114° (ESE) 1,580 4.4 -11.9°
Drops below altitude 10° 06:04:03 10° 51° (NE) 2,828 5.4 -10.9°
Sets 06:06:55 0° 43° (NE) 3,805 6.0 -10.4°
